TimeCDT,TemperatureF,Dew PointF,Humidity,Sea Level PressureIn,VisibilityMPH,Wind Direction,Wind SpeedMPH,Gust SpeedMPH,PrecipitationIn,Events,Conditions,WindDirDegrees,DateUTC
12:15 AM,41.0,37.4,87,30.25,10.0,SSE,4.6,-,N/A,,Clear,150,2012-10-11 05:15:00
12:35 AM,42.8,37.4,81,30.25,10.0,SSE,4.6,-,N/A,,Clear,150,2012-10-11 05:35:00
12:55 AM,41.0,37.4,87,30.24,10.0,SE,3.5,-,N/A,,Clear,140,2012-10-11 05:55:00
1:15 AM,41.0,37.4,87,30.24,10.0,SSE,3.5,-,N/A,,Clear,150,2012-10-11 06:15:00
1:35 AM,39.2,37.4,93,30.24,10.0,SE,3.5,-,N/A,,Clear,140,2012-10-11 06:35:00
1:55 AM,39.2,37.4,93,30.25,10.0,SSE,3.5,-,N/A,,Clear,160,2012-10-11 06:55:00
2:15 AM,39.2,37.4,93,30.24,10.0,Calm,Calm,-,N/A,,Clear,0,2012-10-11 07:15:00
2:35 AM,39.2,37.4,93,30.24,10.0,Calm,Calm,-,N/A,,Clear,0,2012-10-11 07:35:00
2:55 AM,37.4,37.4,100,30.24,10.0,Calm,Calm,-,N/A,,Clear,0,2012-10-11 07:55:00
3:15 AM,37.4,37.4,100,30.24,10.0,Calm,Calm,-,N/A,,Clear,0,2012-10-11 08:15:00
3:55 AM,37.4,37.4,100,30.24,10.0,Calm,Calm,-,N/A,,Clear,0,2012-10-11 08:55:00
4:15 AM,37.4,37.4,100,30.25,10.0,Calm,Calm,-,N/A,,Clear,0,2012-10-11 09:15:00
4:35 AM,37.4,37.4,100,30.25,10.0,Calm,Calm,-,N/A,,Clear,0,2012-10-11 09:35:00
4:55 AM,37.4,35.6,93,30.25,10.0,Calm,Calm,-,N/A,,Clear,0,2012-10-11 09:55:00
5:15 AM,35.6,35.6,100,30.25,10.0,SE,3.5,-,N/A,,Clear,140,2012-10-11 10:15:00
5:35 AM,37.4,37.4,100,30.25,10.0,Calm,Calm,-,N/A,,Clear,0,2012-10-11 10:35:00
6:15 AM,37.4,37.4,100,30.25,10.0,SE,3.5,-,N/A,,Clear,140,2012-10-11 11:15:00
6:35 AM,37.4,37.4,100,30.25,10.0,SSE,4.6,-,N/A,,Clear,150,2012-10-11 11:35:00
6:55 AM,39.2,37.4,93,30.26,10.0,SSE,3.5,-,N/A,,Clear,150,2012-10-11 11:55:00
7:15 AM,39.2,37.4,93,30.26,10.0,SSE,5.8,-,N/A,,Clear,150,2012-10-11 12:15:00
7:35 AM,39.2,37.4,93,30.26,10.0,SSE,5.8,-,N/A,,Clear,150,2012-10-11 12:35:00
7:55 AM,41.0,39.2,93,30.26,10.0,SSE,5.8,-,N/A,,Clear,160,2012-10-11 12:55:00
8:15 AM,42.8,39.2,87,30.26,10.0,SSE,5.8,-,N/A,,Clear,150,2012-10-11 13:15:00
8:35 AM,44.6,39.2,81,30.26,10.0,SSE,8.1,-,N/A,,Clear,160,2012-10-11 13:35:00
8:55 AM,48.2,37.4,66,30.26,10.0,South,10.4,-,N/A,,Clear,170,2012-10-11 13:55:00
9:15 AM,50.0,37.4,62,30.27,10.0,South,10.4,-,N/A,,Clear,180,2012-10-11 14:15:00
9:35 AM,51.8,35.6,54,30.26,10.0,South,10.4,-,N/A,,Clear,170,2012-10-11 14:35:00
9:55 AM,53.6,37.4,54,30.26,10.0,SSE,8.1,-,N/A,,Clear,150,2012-10-11 14:55:00
10:15 AM,55.4,33.8,44,30.27,10.0,South,9.2,-,N/A,,Clear,180,2012-10-11 15:15:00
10:35 AM,55.4,28.4,36,30.27,10.0,South,9.2,16.1,N/A,,Clear,180,2012-10-11 15:35:00
10:55 AM,57.2,28.4,33,30.27,10.0,South,10.4,-,N/A,,Clear,190,2012-10-11 15:55:00
11:15 AM,55.4,28.4,36,30.27,10.0,South,9.2,16.1,N/A,,Mostly Cloudy,190,2012-10-11 16:15:00
11:35 AM,55.4,30.2,38,30.27,10.0,South,5.8,-,N/A,,Overcast,180,2012-10-11 16:35:00
11:55 AM,55.4,28.4,36,30.26,10.0,South,8.1,-,N/A,,Overcast,170,2012-10-11 16:55:00
12:15 PM,57.2,26.6,31,30.25,10.0,South,11.5,16.1,N/A,,Overcast,190,2012-10-11 17:15:00
12:35 PM,59.0,26.6,29,30.24,10.0,South,13.8,-,N/A,,Mostly Cloudy,190,2012-10-11 17:35:00
12:55 PM,60.8,26.6,27,30.23,10.0,SSW,5.8,-,N/A,,Scattered Clouds,200,2012-10-11 17:55:00
1:15 PM,60.8,24.8,25,30.22,10.0,South,11.5,-,N/A,,Scattered Clouds,180,2012-10-11 18:15:00
1:35 PM,60.8,26.6,27,30.21,10.0,SSW,8.1,-,N/A,,Mostly Cloudy,210,2012-10-11 18:35:00
1:55 PM,60.8,24.8,25,30.20,10.0,South,8.1,-,N/A,,Overcast,180,2012-10-11 18:55:00
2:15 PM,62.6,23.0,22,30.20,10.0,SSW,10.4,-,N/A,,Overcast,210,2012-10-11 19:15:00
2:35 PM,60.8,21.2,22,30.19,10.0,South,10.4,-,N/A,,Mostly Cloudy,180,2012-10-11 19:35:00
2:55 PM,60.8,24.8,25,30.19,10.0,South,9.2,17.3,N/A,,Mostly Cloudy,190,2012-10-11 19:55:00
3:15 PM,62.6,24.8,24,30.18,10.0,South,9.2,-,N/A,,Mostly Cloudy,180,2012-10-11 20:15:00
3:35 PM,62.6,28.4,27,30.18,10.0,South,9.2,-,N/A,,Mostly Cloudy,180,2012-10-11 20:35:00
3:55 PM,60.8,30.2,31,30.18,10.0,South,10.4,18.4,N/A,,Mostly Cloudy,180,2012-10-11 20:55:00
4:15 PM,60.8,33.8,36,30.17,10.0,South,6.9,-,N/A,,Mostly Cloudy,190,2012-10-11 21:15:00
4:35 PM,60.8,33.8,36,30.16,10.0,South,6.9,-,N/A,,Scattered Clouds,190,2012-10-11 21:35:00
4:55 PM,62.6,35.6,37,30.17,10.0,South,6.9,-,N/A,,Scattered Clouds,190,2012-10-11 21:55:00
5:15 PM,62.6,35.6,37,30.16,10.0,South,8.1,-,N/A,,Scattered Clouds,190,2012-10-11 22:15:00
5:35 PM,60.8,35.6,39,30.16,10.0,South,9.2,-,N/A,,Mostly Cloudy,180,2012-10-11 22:35:00
5:55 PM,60.8,37.4,42,30.16,10.0,South,6.9,-,N/A,,Overcast,180,2012-10-11 22:55:00
6:35 PM,59.0,37.4,45,30.17,10.0,South,5.8,-,N/A,,Overcast,170,2012-10-11 23:35:00
6:55 PM,59.0,37.4,45,30.17,10.0,South,5.8,-,N/A,,Overcast,170,2012-10-11 23:55:00
7:35 PM,57.2,39.2,51,30.17,10.0,SSE,5.8,-,N/A,,Overcast,160,2012-10-12 00:35:00
7:55 PM,57.2,41.0,55,30.18,10.0,South,6.9,-,N/A,,Overcast,180,2012-10-12 00:55:00
8:15 PM,57.2,41.0,55,30.18,10.0,South,4.6,-,N/A,,Overcast,170,2012-10-12 01:15:00
8:35 PM,57.2,41.0,55,30.19,10.0,South,3.5,-,N/A,,Overcast,180,2012-10-12 01:35:00
8:55 PM,57.2,42.8,59,30.18,10.0,SSE,3.5,-,N/A,,Overcast,160,2012-10-12 01:55:00
9:15 PM,57.2,42.8,59,30.18,10.0,SSE,3.5,-,N/A,,Overcast,150,2012-10-12 02:15:00
9:35 PM,57.2,42.8,59,30.19,10.0,South,3.5,-,N/A,Thunderstorm,Overcast,180,2012-10-12 02:35:00
9:55 PM,55.4,46.4,72,30.19,10.0,South,3.5,-,N/A,,Drizzle,190,2012-10-12 02:55:00
10:15 PM,55.4,50.0,82,30.18,10.0,SSE,3.5,-,N/A,Rain-Thunderstorm,Light Thunderstorms and Rain,160,2012-10-12 03:15:00
10:35 PM,55.4,50.0,82,30.21,10.0,WSW,6.9,-,N/A,Thunderstorm,Thunderstorm,250,2012-10-12 03:35:00
10:55 PM,53.6,51.8,94,30.20,10.0,SW,6.9,-,N/A,Thunderstorm,Unknown,220,2012-10-12 03:55:00
11:15 PM,51.8,51.8,100,30.20,10.0,Calm,Calm,-,N/A,Thunderstorm,Drizzle,0,2012-10-12 04:15:00
11:35 PM,51.8,51.8,100,30.20,7.0,NNW,3.5,-,N/A,Rain,Light Rain,340,2012-10-12 04:35:00
11:55 PM,51.8,51.8,100,30.21,10.0,Calm,Calm,-,0.03,Rain,Light Rain,0,2012-10-12 04:55:00